User: anonymous   Login
Location: Unspecified
(0.0000°N, 0.0000°E)
Time: 00:19:48
(UTC+00:00)
Language:

USA 215 - Orbit

View from above orbital plane
View from above orbital plane
View from above satellite
View from above satellite

Ground track
Ground track

The orbit data is extracted from the following two-line orbital elements,

1 37162U 10046A   17086.02631075 0.00000000  00000-0  00000-0 0    09
2 37162 123.0013 280.5003 0006000 132.7239 227.2760 13.41411063    02
Epoch (UTC): 27 March 2017 00:37:53
Eccentricity: 0.0006000
inclination: 123.0013°
perigee height: 1099 km
apogee height: 1108 km
right ascension of ascending node: 280.5003°
argument of perigee: 132.7239°
revolutions per day: 13.41411063
mean anomaly at epoch: 227.2760°
orbit number at epoch: 0

The dashed part of the orbit path shows where the satellite is in the earth's shadow,  

DLR